User: anonymous
Location: Unspecified
(0.0000°N, 0.0000°E)
Time: 16:15:12
(UTC+02:00)
Language:

Iridium 15 - Orbit

View from above orbital plane
View from above orbital plane
View from above satellite
View from above satellite

Ground track
Ground track

The orbit data is extracted from the following two-line orbital elements,

1 24869U 97034A   14273.45802086  .00000309  00000-0  10333-3 0   943
2 24869 086.3932 075.9479 0002096 108.6210 302.9273 14.34216952901911
Epoch (UTC): 30 September 2014 10:59:33
Eccentricity: 0.0002096
inclination: 86.3932°
perigee height: 776 km
apogee height: 779 km
right ascension of ascending node: 75.9479°
argument of perigee: 108.6210°
revolutions per day: 14.34216952
mean anomaly at epoch: 302.9273°
orbit number at epoch: 90191

The dashed part of the orbit path shows where the satellite is in the earth's shadow,  

DLR